TimeEST,TemperatureF,Dew PointF,Humidity,Sea Level PressureIn,VisibilityMPH,Wind Direction,Wind SpeedMPH,Gust SpeedMPH,PrecipitationIn,Events,Conditions,WindDirDegrees,DateUTC
12:15 AM,38.8,28.8,67,30.30,10.0,NNW,5.8,-,N/A,,Clear,330,2013-01-05 05:15:00
12:35 AM,38.3,28.2,67,30.30,10.0,NNW,3.5,-,N/A,,Clear,330,2013-01-05 05:35:00
12:55 AM,37.6,27.5,67,30.30,10.0,NNW,3.5,-,N/A,,Clear,340,2013-01-05 05:55:00
1:15 AM,37.0,27.0,67,30.30,10.0,NW,4.6,-,N/A,,Clear,320,2013-01-05 06:15:00
1:35 AM,36.5,26.4,67,30.30,10.0,NW,3.5,-,N/A,,Clear,310,2013-01-05 06:35:00
1:55 AM,35.8,25.3,66,30.30,10.0,WNW,4.6,-,N/A,,Clear,300,2013-01-05 06:55:00
2:15 AM,35.6,24.8,65,30.31,10.0,Calm,Calm,-,N/A,,Clear,0,2013-01-05 07:15:00
2:35 AM,34.0,25.5,71,30.32,10.0,Calm,Calm,-,N/A,,Clear,0,2013-01-05 07:35:00
2:55 AM,32.0,25.5,77,30.32,10.0,Calm,Calm,-,N/A,,Clear,0,2013-01-05 07:55:00
3:15 AM,32.0,26.4,80,30.32,10.0,Calm,Calm,-,N/A,,Clear,0,2013-01-05 08:15:00
3:35 AM,32.0,25.5,77,30.32,10.0,Calm,Calm,-,N/A,,Clear,0,2013-01-05 08:35:00
3:55 AM,30.2,24.3,79,30.32,10.0,WSW,3.5,-,N/A,,Clear,250,2013-01-05 08:55:00
4:15 AM,30.0,24.4,80,30.32,10.0,Calm,Calm,-,N/A,,Clear,0,2013-01-05 09:15:00
4:35 AM,30.9,24.6,77,30.32,10.0,Calm,Calm,-,N/A,,Clear,0,2013-01-05 09:35:00
4:55 AM,28.2,24.1,84,30.32,10.0,SSW,3.5,-,N/A,,Clear,210,2013-01-05 09:55:00
5:15 AM,28.2,24.8,87,30.33,10.0,Calm,Calm,-,N/A,,Clear,0,2013-01-05 10:15:00
5:35 AM,28.4,25.3,88,30.34,10.0,Calm,Calm,-,N/A,,Clear,0,2013-01-05 10:35:00
6:15 AM,28.9,24.6,84,30.35,10.0,Calm,Calm,-,N/A,,Clear,0,2013-01-05 11:15:00
6:35 AM,30.0,24.1,79,30.35,10.0,Calm,Calm,-,N/A,,Clear,0,2013-01-05 11:35:00
6:55 AM,29.3,23.4,78,30.35,10.0,Calm,Calm,-,N/A,,Clear,0,2013-01-05 11:55:00
7:35 AM,28.2,23.4,82,30.36,10.0,Calm,Calm,-,N/A,,Clear,0,2013-01-05 12:35:00
7:55 AM,28.4,23.7,83,30.36,10.0,Calm,Calm,-,N/A,,Clear,0,2013-01-05 12:55:00
8:15 AM,30.0,26.1,85,30.38,10.0,Calm,Calm,-,N/A,,Clear,0,2013-01-05 13:15:00
8:35 AM,32.4,27.0,80,30.39,10.0,Calm,Calm,-,N/A,,Clear,0,2013-01-05 13:35:00
8:55 AM,35.6,24.6,64,30.39,10.0,Calm,Calm,-,N/A,,Clear,0,2013-01-05 13:55:00
9:15 AM,36.5,24.4,62,30.40,10.0,WNW,3.5,-,N/A,,Clear,300,2013-01-05 14:15:00
9:35 AM,38.8,24.4,56,30.40,10.0,Calm,Calm,-,N/A,,Clear,0,2013-01-05 14:35:00
9:55 AM,40.3,25.5,56,30.41,10.0,NNW,3.5,-,N/A,,Clear,340,2013-01-05 14:55:00
10:15 AM,40.3,24.6,54,30.40,10.0,Calm,Calm,-,N/A,,Clear,0,2013-01-05 15:15:00
10:35 AM,41.9,25.2,52,30.40,10.0,NNW,4.6,-,N/A,,Clear,330,2013-01-05 15:35:00
10:55 AM,44.2,24.6,46,30.40,10.0,NW,4.6,-,N/A,,Clear,310,2013-01-05 15:55:00
11:15 AM,44.4,22.3,42,30.40,10.0,North,3.5,-,N/A,,Clear,350,2013-01-05 16:15:00
11:55 AM,46.0,23.0,40,30.37,10.0,WNW,3.5,-,N/A,,Clear,300,2013-01-05 16:55:00
12:35 PM,47.7,23.9,39,30.36,10.0,Calm,Calm,-,N/A,,Clear,0,2013-01-05 17:35:00
12:55 PM,48.6,23.9,38,30.34,10.0,Calm,Calm,-,N/A,,Clear,0,2013-01-05 17:55:00
1:15 PM,49.5,23.9,37,30.32,10.0,Calm,Calm,-,N/A,,Clear,0,2013-01-05 18:15:00
1:35 PM,49.3,23.2,36,30.32,10.0,Calm,Calm,-,N/A,,Clear,0,2013-01-05 18:35:00
1:55 PM,49.3,23.5,36,30.31,10.0,Calm,Calm,-,N/A,,Clear,0,2013-01-05 18:55:00
2:15 PM,50.0,23.2,35,30.30,10.0,Calm,Calm,-,N/A,,Clear,0,2013-01-05 19:15:00
2:35 PM,50.4,23.7,35,30.30,10.0,Calm,Calm,-,N/A,,Clear,0,2013-01-05 19:35:00
2:55 PM,50.9,24.1,35,30.30,10.0,SW,4.6,-,N/A,,Clear,220,2013-01-05 19:55:00
3:15 PM,50.9,23.7,35,30.31,10.0,West,3.5,-,N/A,,Clear,280,2013-01-05 20:15:00
3:35 PM,50.4,24.6,37,30.31,10.0,Calm,Calm,-,N/A,,Clear,0,2013-01-05 20:35:00
3:55 PM,50.4,24.4,36,30.31,10.0,Calm,Calm,-,N/A,,Clear,0,2013-01-05 20:55:00
4:15 PM,50.4,25.7,38,30.32,10.0,South,4.6,-,N/A,,Clear,180,2013-01-05 21:15:00
4:35 PM,49.6,27.1,42,30.32,10.0,SSW,3.5,-,N/A,,Clear,200,2013-01-05 21:35:00
4:55 PM,48.0,28.9,48,30.32,10.0,South,3.5,-,N/A,,Clear,190,2013-01-05 21:55:00
5:15 PM,45.0,31.8,60,30.32,10.0,Calm,Calm,-,N/A,,Clear,0,2013-01-05 22:15:00
5:35 PM,43.3,30.9,62,30.32,10.0,Calm,Calm,-,N/A,,Clear,0,2013-01-05 22:35:00
5:55 PM,41.2,32.0,70,30.33,10.0,Calm,Calm,-,N/A,,Clear,0,2013-01-05 22:55:00
6:15 PM,41.0,32.0,70,30.33,10.0,Calm,Calm,-,N/A,,Clear,0,2013-01-05 23:15:00
6:35 PM,40.1,32.2,73,30.32,10.0,Calm,Calm,-,N/A,,Clear,0,2013-01-05 23:35:00
6:55 PM,38.3,31.8,77,30.33,10.0,Calm,Calm,-,N/A,,Clear,0,2013-01-05 23:55:00
7:15 PM,38.8,32.0,76,30.32,10.0,SE,3.5,-,N/A,,Clear,140,2013-01-06 00:15:00
7:35 PM,38.3,32.0,78,30.32,10.0,SE,3.5,-,N/A,,Clear,130,2013-01-06 00:35:00
7:55 PM,38.3,32.0,78,30.32,10.0,Calm,Calm,-,N/A,,Clear,0,2013-01-06 00:55:00
8:15 PM,37.2,31.6,80,30.32,10.0,SE,3.5,-,N/A,,Clear,140,2013-01-06 01:15:00
8:55 PM,38.7,30.9,74,30.31,10.0,SSE,3.5,-,N/A,,Clear,160,2013-01-06 01:55:00
9:15 PM,39.2,31.8,75,30.31,10.0,South,3.5,-,N/A,,Clear,180,2013-01-06 02:15:00
9:35 PM,40.1,32.0,73,30.33,10.0,SSW,4.6,-,N/A,,Clear,200,2013-01-06 02:35:00
9:55 PM,40.1,32.0,73,30.32,10.0,SSW,3.5,-,N/A,,Clear,200,2013-01-06 02:55:00
10:15 PM,40.3,32.2,73,30.30,10.0,Calm,Calm,-,N/A,,Clear,0,2013-01-06 03:15:00
10:35 PM,40.3,32.5,74,30.31,10.0,Calm,Calm,-,N/A,,Clear,0,2013-01-06 03:35:00
10:55 PM,40.6,32.7,73,30.31,10.0,Calm,Calm,-,N/A,,Clear,0,2013-01-06 03:55:00
11:15 PM,40.5,32.7,74,30.31,10.0,Calm,Calm,-,N/A,,Clear,0,2013-01-06 04:15:00
11:35 PM,40.8,32.9,73,30.30,10.0,Calm,Calm,-,N/A,,Clear,0,2013-01-06 04:35:00
11:55 PM,40.8,33.3,74,30.30,10.0,Calm,Calm,-,N/A,,Clear,0,2013-01-06 04:55:00